Location: Kott?ru
(16.6209°N, 80.6208°E)
Time: 14:29:28
(UTC+00:00)

Cosmos 1484 Rocket - Pass Details

Date: 18 September 2020
Orbit: 506 x 559 km, 97.4° (Epoch: 31 October)

Event Time Altitude Azimuth Distance (km) Brightness Sun altitude
Rises 23:12:07 0° 5° (N) 2,731 6.5 -18.5°
Reaches altitude 10° 23:14:16 10° 2° (N) 1,838 5.6 -18.0°
Maximum altitude 23:18:11 61° 282° (WNW) 636 2.8 -17.1°
Drops below altitude 10° 23:22:07 10° 202° (SSW) 1,835 5.2 -16.1°
Enters shadow 23:22:48 - 200° (SSW) 2,116 5.5 -16.0°
